Location: Ajisawe
(8.4333°N, 4.3833°E)
Time: 14:06:40
(UTC+00:00)

Courier 1B Rocket - Pass Details

Date: 24 April 2021
Orbit: 920 x 1202 km, 28.2° (Epoch: 07 May)

Event Time Altitude Azimuth Distance (km) Brightness Sun altitude
Rises 01:17:06 0° 291° (WNW) 3,976 - -57.9°
Reaches altitude 10° 01:19:53 10° 288° (WNW) 3,049 - -57.4°
Maximum altitude 01:27:22 58° 210° (SSW) 1,361 - -56.0°
Drops below altitude 10° 01:35:02 10° 133° (SE) 3,128 - -54.5°
Sets 01:37:57 0° 129° (SE) 4,085 - -53.9°
